THURAYA-2

Last updated on Thu Sep 10 2026 00:02:55 GMT+0000 (Coordinated Universal Time)

1 27825U 03026A 26252.52297543 .00000109 00000+0 00000+0 0 9997 2 27825 8.9680 31.5490 0000919 56.1181 133.1938 1.00271384 85197
UTC large
Height (km)
Speed (km/s)
/
Latitude / Longitude
Inclination (degrees)
Orbital Period (minutes)
Azimuth
Elevation
Range (km)
Doppler Factor

Next 0 passes for location: London (51.5072 / 0.1276)

No passes found over London.
THURAYA-2